"TOA5","MOW","CPU:UNC_MeetingWaters","DataHourly"
"TIMESTAMP","SondeTempC","SpCond","DOSat","DOmg","pH","Turb","BattVolt_Min"
"TS","","","","","","",""
"","Smp","Smp","Smp","Smp","Smp","Smp","Min"
"2002-08-01 00:00:00",24.6399993896,0.00600000005215,82.4000015259,6.86000013351,7.17999982834,-3.79999995232,12.5699996948
"2002-08-01 01:00:00",24.4799995422,0.0120000001043,84.1999969482,7.03000020981,7.17999982834,-3.29999995232,12.5600004196
"2002-08-01 02:00:00",24.3099994659,0.00600000005215,83.8000030518,7.01999998093,7.17999982834,-2.0,12.5399999619
"2002-08-01 03:00:00",24.1499996185,0.00600000005215,83.1999969482,6.98999977112,7.19000005722,-1.20000004768,12.529999733
"2002-08-01 04:00:00",23.9899997711,0.201000005007,84.9000015259,7.15000009537,7.19000005722,-0.20000000298,12.5100002289
"2002-08-01 05:00:00",23.8600006104,0.202999994159,86.0,7.26000022888,7.17999982834,0.300000011921,12.4899997711
"2002-08-01 06:00:00",23.7000007629,0.202000007033,86.0,7.28000020981,7.17000007629,0.300000011921,12.470000267
"2002-08-01 07:00:00",23.5300006866,0.197999998927,87.3000030518,7.40999984741,7.17999982834,-0.300000011921,12.4499998093
"2002-08-01 08:00:00",23.5100002289,0.194000005722,88.3000030518,7.5,7.19000005722,-0.5,12.4399995804
"2002-08-01 09:00:00",23.5900001526,0.20000000298,89.6999969482,7.61000013351,7.21000003815,-1.29999995232,12.5
"2002-08-01 10:00:00",23.8299999237,0.01600000076,91.1999969482,7.71000003815,7.23999977112,-2.29999995232,13.1199998856
"2002-08-01 11:00:00",24.1499996185,0.0120000001043,94.1999969482,7.90999984741,7.28000020981,-2.59999990463,13.029999733
"2002-08-01 12:00:00",24.7000007629,0.0130000002682,97.4000015259,8.10000038147,7.28999996185,-2.90000009537,12.970000267
"2002-08-01 13:00:00",25.1800003052,0.231999993324,101.199996948,8.32999992371,7.36999988556,-3.09999990463,12.970000267
"2002-08-01 14:00:00",25.4799995422,0.237000003457,101.699996948,8.32999992371,7.40999984741,-3.29999995232,12.9499998093
"2002-08-01 15:00:00",25.6900005341,0.0560000017285,100.599998474,8.21000003815,7.44000005722,-3.29999995232,12.9300003052
"2002-08-01 16:00:00",25.7099990845,0.00700000021607,98.1999969482,8.01000022888,7.44000005722,-3.40000009537,12.9200000763
"2002-08-01 17:00:00",25.9500007629,0.00400000018999,97.9000015259,7.94999980927,7.40999984741,-3.40000009537,12.8000001907
"2002-08-01 18:00:00",25.6399993896,0.00400000018999,92.6999969482,7.57000017166,7.40999984741,-3.40000009537,12.720000267
"2002-08-01 19:00:00",25.3500003815,0.00800000037998,89.6999969482,7.36000013351,7.34999990463,-3.29999995232,12.6800003052
"2002-08-01 20:00:00",25.1399993896,0.185000002384,89.1999969482,7.34999990463,7.28999996185,-3.20000004768,12.6300001144
"2002-08-01 21:00:00",24.9500007629,0.178000003099,85.5,7.07000017166,7.25,-2.70000004768,12.6099996567
"2002-08-01 22:00:00",24.7700004578,0.178000003099,83.3000030518,6.90999984741,7.17999982834,-1.29999995232,12.6000003815
"2002-08-01 23:00:00",24.5599994659,0.00700000021607,82.3000030518,6.84999990463,7.15999984741,-1.39999997616,12.5900001526
"2002-08-02 00:00:00",24.3500003815,0.00400000018999,82.1999969482,6.86999988556,7.13000011444,-0.899999976158,12.5699996948
"2002-08-02 01:00:00",24.1700000763,0.00400000018999,81.5999984741,6.84999990463,7.15000009537,-1.89999997616,12.5699996948
"2002-08-02 02:00:00",23.9099998474,0.00300000002608,83.1999969482,7.01999998093,7.15999984741,-0.300000011921,12.5500001907
"2002-08-02 03:00:00",23.7700004578,0.00400000018999,83.5,7.05999994278,7.17999982834,-2.0,12.529999733
"2002-08-02 04:00:00",23.6399993896,0.00400000018999,83.6999969482,7.09000015259,7.17999982834,-2.40000009537,12.5200004578
"2002-08-02 05:00:00",23.4799995422,0.00499999988824,84.4000015259,7.17000007629,7.17000007629,-2.79999995232,12.5100002289
"2002-08-02 06:00:00",23.3099994659,0.00999999977648,85.0,7.25,7.19000005722,-3.09999990463,12.4899997711
"2002-08-02 07:00:00",23.1700000763,0.0799999982119,86.5,7.40000009537,7.19000005722,-2.70000004768,12.470000267
"2002-08-02 08:00:00",23.1000003815,0.118000000715,88.5,7.57000017166,7.19000005722,-3.20000004768,12.4499998093
"2002-08-02 09:00:00",23.2000007629,0.129999995232,90.1999969482,7.71000003815,7.19999980927,-3.29999995232,12.4799995422
"2002-08-02 10:00:00",23.4300003052,0.128999993205,93.6999969482,7.96999979019,7.23000001907,-3.5,13.1400003433
"2002-08-02 11:00:00",23.8199996948,0.123000003397,97.5999984741,8.23999977112,7.26999998093,-3.40000009537,13.0500001907
"2002-08-02 12:00:00",24.4799995422,0.0149999996647,102.0,8.51000022888,7.36999988556,-3.40000009537,12.9799995422
"2002-08-02 13:00:00",24.9400005341,0.0120000001043,103.0,8.52000045776,7.32999992371,-3.5,12.9600000381
"2002-08-02 14:00:00",25.1700000763,0.00800000037998,101.900001526,8.39000034332,7.36000013351,-3.59999990463,12.8699998856
"2002-08-02 15:00:00",25.5699996948,0.0140000004321,105.099998474,8.60000038147,7.42999982834,-4.09999990463,12.8599996567
"2002-08-02 16:00:00",25.3600006104,0.00800000037998,99.0999984741,8.14000034332,7.40999984741,-3.90000009537,12.7100000381
"2002-08-02 17:00:00",25.1000003815,0.00499999988824,96.8000030518,7.98000001907,7.42999982834,-3.90000009537,12.7700004578
"2002-08-02 18:00:00",24.7999992371,0.00400000018999,94.0,7.80000019073,7.38999986649,-3.90000009537,12.6599998474
"2002-08-02 19:00:00",24.6100006104,0.00400000018999,91.3000030518,7.59999990463,7.38999986649,-4.09999990463,12.6199998856
"2002-08-02 20:00:00",24.3600006104,0.00899999961257,89.3000030518,7.46999979019,7.36000013351,-4.09999990463,12.6099996567
"2002-08-02 21:00:00",24.1800003052,0.128999993205,87.6999969482,7.36000013351,7.30000019073,-4.0,12.5900001526
"2002-08-02 22:00:00",23.9599990845,0.190999999642,86.8000030518,7.30999994278,7.28000020981,-3.90000009537,12.5799999237
"2002-08-02 23:00:00",23.7999992371,0.134000003338,86.8000030518,7.34000015259,7.23999977112,-3.70000004768,12.5699996948
"2002-08-03 00:00:00",23.6599998474,0.107000000775,85.9000015259,7.28000020981,7.21999979019,-3.79999995232,12.5600004196
"2002-08-03 01:00:00",23.5,0.0140000004321,85.8000030518,7.30000019073,7.19000005722,-4.0,12.5399999619
"2002-08-03 02:00:00",23.3500003815,0.00499999988824,86.6999969482,7.38999986649,7.23000001907,-4.0,12.5200004578
"2002-08-03 03:00:00",23.1299991608,0.00499999988824,85.1999969482,7.28999996185,7.21000003815,-4.09999990463,12.5
"2002-08-03 04:00:00",22.9599990845,0.00499999988824,87.0,7.46999979019,7.23000001907,-3.90000009537,12.4799995422
"2002-08-03 05:00:00",22.7900009155,0.00499999988824,86.4000015259,7.44000005722,7.23000001907,-4.09999990463,12.4600000381
"2002-08-03 06:00:00",22.6399993896,0.00800000037998,87.8000030518,7.57999992371,7.21999979019,-4.09999990463,12.4300003052
"2002-08-03 07:00:00",22.4699993134,0.237000003457,88.5999984741,7.67999982834,7.25,-4.09999990463,12.4099998474
"2002-08-03 08:00:00",22.3400001526,0.238999992609,90.0999984741,7.82000017166,7.25,-3.59999990463,12.4099998474
"2002-08-03 09:00:00",22.4200000763,0.231000006199,92.5,8.02000045776,7.28000020981,-3.90000009537,12.4099998474
"2002-08-03 10:00:00",22.7099990845,0.224000006914,94.9000015259,8.18000030518,7.30000019073,-3.79999995232,13.1899995804
"2002-08-03 11:00:00",23.1599998474,0.217999994755,99.0999984741,8.47000026703,7.32999992371,-3.70000004768,13.0699996948
"2002-08-03 12:00:00",23.8500003815,0.21400000155,104.0,8.77999973297,7.44000005722,-3.79999995232,13.0
"2002-08-03 13:00:00",24.4699993134,0.184000000358,106.199996948,8.85999965668,7.44000005722,-3.0,12.9600000381
"2002-08-03 14:00:00",25.1599998474,0.00499999988824,105.599998474,8.69999980927,7.48999977112,-2.40000009537,12.9399995804
"2002-08-03 15:00:00",25.5,0.00300000002608,105.199996948,8.60999965668,7.75,-1.89999997616,12.9099998474
"2002-08-03 16:00:00",26.7199993134,0.00200000009499,107.900001526,8.64000034332,7.71000003815,-1.89999997616,12.9099998474
"2002-08-03 17:00:00",25.7800006866,0.00200000009499,114.699996948,9.34000015259,7.71000003815,-2.09999990463,12.7600002289
"2002-08-03 18:00:00",25.6399993896,0.00200000009499,131.699996948,10.7600002289,7.90000009537,-2.29999995232,12.6999998093
"2002-08-03 19:00:00",25.2800006866,0.00200000009499,101.400001526,8.34000015259,7.86999988556,-2.40000009537,12.6599998474
"2002-08-03 20:00:00",24.8099994659,0.00200000009499,87.9000015259,7.28999996185,7.80999994278,-2.70000004768,12.6199998856
"2002-08-03 21:00:00",24.3299999237,0.00300000002608,86.6999969482,7.26000022888,7.73999977112,-2.40000009537,12.6099996567
"2002-08-03 22:00:00",24.0100002289,0.00300000002608,83.5,7.03000020981,7.71999979019,-3.20000004768,12.5900001526
"2002-08-03 23:00:00",23.5799999237,0.00300000002608,82.0,6.94999980927,7.67999982834,-0.899999976158,12.5699996948
"2002-08-04 00:00:00",23.3799991608,0.00300000002608,84.8000030518,7.21999979019,7.59999990463,-3.40000009537,12.5699996948
"2002-08-04 01:00:00",23.5,0.00300000002608,87.8000030518,7.46000003815,7.46000003815,-3.79999995232,12.5500001907
"2002-08-04 02:00:00",23.2999992371,0.00400000018999,87.8000030518,7.48999977112,7.34999990463,-4.0,12.529999733
"2002-08-04 03:00:00",23.0900001526,0.00400000018999,87.9000015259,7.53000020981,7.28999996185,-4.0,12.5200004578
"2002-08-04 04:00:00",22.8600006104,0.00499999988824,89.9000015259,7.73000001907,7.28999996185,-2.70000004768,12.4899997711
"2002-08-04 05:00:00",22.7000007629,0.00600000005215,88.6999969482,7.65999984741,7.26000022888,-3.0,12.4799995422
"2002-08-04 06:00:00",22.5,0.00600000005215,88.3000030518,7.65000009537,7.23000001907,-3.59999990463,12.4600000381
"2002-08-04 07:00:00",22.3199996948,0.00499999988824,88.5,7.69000005722,7.23000001907,-3.40000009537,12.4399995804
"2002-08-04 08:00:00",22.2099990845,0.00499999988824,89.3000030518,7.76999998093,7.23000001907,-3.29999995232,12.4099998474
"2002-08-04 09:00:00",22.3299999237,0.00600000005215,89.6999969482,7.78999996185,7.26999998093,-3.40000009537,12.4200000763
"2002-08-04 10:00:00",22.6200008392,0.00499999988824,93.3000030518,8.06000041962,7.30999994278,-3.29999995232,12.6099996567
"2002-08-04 11:00:00",23.1399993896,0.00400000018999,98.5,8.43000030518,7.36000013351,-3.79999995232,12.9600000381
"2002-08-04 12:00:00",23.5200004578,0.254999995232,104.800003052,8.89999961853,7.38000011444,-4.0,13.0200004578
"2002-08-04 13:00:00",24.0400009155,0.344000011683,102.300003052,8.60000038147,7.36999988556,5.90000009537,12.9799995422
"2002-08-04 14:00:00",24.5400009155,0.218999996781,102.5,8.53999996185,7.40999984741,3.5,12.9499998093
"2002-08-04 15:00:00",24.9699993134,0.00300000002608,98.5,8.14999961853,7.46000003815,-0.300000011921,12.9300003052
"2002-08-04 16:00:00",24.9400005341,0.00200000009499,96.6999969482,8.0,7.42000007629,-1.5,12.9300003052
"2002-08-04 17:00:00",24.9699993134,0.180999994278,97.3000030518,8.03999996185,7.40000009537,-2.29999995232,12.779999733
"2002-08-04 18:00:00",24.75,0.145999997854,93.5,7.76000022888,7.34999990463,-1.89999997616,12.720000267
"2002-08-04 19:00:00",24.5699996948,0.00300000002608,88.3000030518,7.36000013351,7.32000017166,-1.70000004768,12.6599998474
"2002-08-04 20:00:00",24.3899993896,0.00300000002608,87.5,7.32000017166,7.28000020981,-1.60000002384,12.6300001144
"2002-08-04 21:00:00",24.2700004578,0.00600000005215,85.0,7.11999988556,7.23000001907,-1.60000002384,12.6099996567
"2002-08-04 22:00:00",24.0799999237,0.00200000009499,81.5999984741,6.86000013351,7.23000001907,-2.09999990463,12.6000003815
"2002-08-04 23:00:00",23.8700008392,0.00200000009499,80.5999984741,6.80000019073,7.23000001907,-2.59999990463,12.5900001526
"2002-08-05 00:00:00",23.6800003052,0.00200000009499,83.9000015259,7.11000013351,7.23000001907,-3.0,12.5699996948
"2002-08-05 01:00:00",23.4699993134,0.00200000009499,80.5,6.84000015259,7.25,-3.09999990463,12.5500001907
"2002-08-05 02:00:00",23.3299999237,0.00200000009499,79.5,6.78000020981,7.26000022888,-3.20000004768,12.5399999619
"2002-08-05 03:00:00",23.1399993896,0.00200000009499,84.5999984741,7.23999977112,7.28000020981,-3.20000004768,12.5100002289
"2002-08-05 04:00:00",22.9599990845,0.00200000009499,84.8000030518,7.28000020981,7.26000022888,-3.29999995232,12.4899997711
"2002-08-05 05:00:00",22.7399997711,0.00200000009499,85.8000030518,7.40000009537,7.28999996185,-2.5,12.470000267
"2002-08-05 06:00:00",22.5200004578,0.00300000002608,84.3000030518,7.30000019073,7.28999996185,-3.5,12.4600000381
"2002-08-05 07:00:00",22.3999996185,0.00300000002608,86.3000030518,7.48999977112,7.26999998093,-3.09999990463,12.4300003052
"2002-08-05 08:00:00",22.3099994659,0.0719999969006,88.9000015259,7.73000001907,7.26000022888,-3.70000004768,12.4099998474
"2002-08-05 09:00:00",22.3999996185,0.208000004292,91.4000015259,7.92999982834,7.28000020981,-3.5,12.4399995804
"2002-08-05 10:00:00",22.6599998474,0.201000005007,95.4000015259,8.22999954224,7.28999996185,-3.20000004768,13.1599998474
"2002-08-05 11:00:00",23.1000003815,0.194999992847,102.699996948,8.78999996185,7.32000017166,-3.20000004768,13.0699996948
"2002-08-05 12:00:00",23.8700008392,0.193000003695,105.800003052,8.92000007629,7.40000009537,-3.0,13.0
"2002-08-05 13:00:00",24.5200004578,0.00300000002608,107.099998474,8.93000030518,7.42000007629,-2.09999990463,12.970000267
"2002-08-05 14:00:00",25.5699996948,0.00200000009499,113.099998474,9.25,7.61999988556,0.5,12.9499998093
"2002-08-05 15:00:00",26.4099998474,0.0010000000475,114.099998474,9.18999958038,8.0,9.39999961853,12.9099998474
"2002-08-05 16:00:00",26.8099994659,0.0,121.5,9.72000026703,7.84000015259,8.60000038147,12.8999996185
"2002-08-05 17:00:00",25.9300003052,0.0,122.699996948,9.97000026703,8.10999965668,4.59999990463,12.779999733
"2002-08-05 18:00:00",25.5699996948,0.0,102.599998474,8.39000034332,7.98000001907,0.5,12.720000267
"2002-08-05 19:00:00",25.3700008392,0.0,97.5,8.01000022888,7.86000013351,-0.699999988079,12.6599998474
"2002-08-05 20:00:00",24.9300003052,0.0,91.1999969482,7.55000019073,7.67000007629,-2.0,12.6300001144
"2002-08-05 21:00:00",24.6100006104,0.0010000000475,84.9000015259,7.07000017166,7.55999994278,-2.70000004768,12.6199998856
"2002-08-05 22:00:00",24.2299995422,0.0010000000475,82.5999984741,6.92999982834,7.46000003815,-2.70000004768,12.6000003815
"2002-08-05 23:00:00",24.1499996185,0.0010000000475,88.3000030518,7.40999984741,7.38999986649,-3.0,12.5900001526
"2002-08-06 00:00:00",23.8899993896,0.0010000000475,85.1999969482,7.19000005722,7.32999992371,-3.40000009537,12.5799999237
"2002-08-06 01:00:00",23.7099990845,0.0010000000475,82.1999969482,6.96000003815,7.30000019073,-3.70000004768,12.5500001907
"2002-08-06 02:00:00",23.5,0.0010000000475,82.1999969482,6.98999977112,7.28000020981,-3.59999990463,12.5500001907
"2002-08-06 03:00:00",23.3199996948,0.00200000009499,82.6999969482,7.05000019073,7.26000022888,-3.79999995232,12.529999733
"2002-08-06 04:00:00",23.2399997711,0.00200000009499,77.0,6.57999992371,7.23000001907,-3.5,12.5100002289
"2002-08-06 05:00:00",23.0499992371,0.00200000009499,76.9000015259,6.59999990463,7.21999979019,-3.59999990463,12.4899997711
"2002-08-06 06:00:00",22.9799995422,0.00200000009499,78.5999984741,6.75,7.21999979019,-3.70000004768,12.470000267
"2002-08-06 07:00:00",22.8799991608,0.00200000009499,86.9000015259,7.46999979019,7.23000001907,-3.90000009537,12.4499998093
"2002-08-06 08:00:00",22.8799991608,0.00200000009499,87.4000015259,7.51000022888,7.25,-3.70000004768,12.4300003052
"2002-08-06 09:00:00",22.9300003052,0.00200000009499,90.0,7.73000001907,7.28000020981,-3.40000009537,12.4399995804
"2002-08-06 10:00:00",23.0799999237,0.00200000009499,94.1999969482,8.06999969482,7.32000017166,-3.20000004768,12.6599998474
"2002-08-06 11:00:00",23.1900005341,0.00200000009499,94.5,8.07999992371,7.34000015259,-3.5,13.0399999619
"2002-08-06 12:00:00",23.7299995422,0.219999998808,106.099998474,8.97000026703,7.40000009537,-3.20000004768,13.0500001907
"2002-08-06 13:00:00",24.1399993896,0.231999993324,107.199996948,8.98999977112,7.46000003815,-3.29999995232,12.8100004196
"2002-08-06 14:00:00",24.6800003052,0.245000004768,114.400001526,9.5,7.57000017166,-3.0,13.0
"2002-08-06 15:00:00",25.0200004578,0.00200000009499,114.800003052,9.47999954224,7.63000011444,-3.0,12.970000267
"2002-08-06 16:00:00",25.6499996185,0.0010000000475,162.300003052,13.25,8.02999973297,-3.29999995232,12.9600000381
"2002-08-06 17:00:00",25.0599994659,0.0010000000475,120.800003052,9.97000026703,8.17000007629,-3.59999990463,12.8000001907
"2002-08-06 18:00:00",24.7000007629,0.0010000000475,100.400001526,8.34000015259,7.86000013351,-3.70000004768,12.7100000381
"2002-08-06 19:00:00",24.2600002289,0.0010000000475,96.1999969482,8.06000041962,7.76000022888,-3.79999995232,12.6499996185
"2002-08-06 20:00:00",23.9400005341,0.0,91.3000030518,7.69000005722,7.67000007629,-3.79999995232,12.6300001144
"2002-08-06 21:00:00",23.2000007629,0.0,82.6999969482,7.07000017166,7.59000015259,-3.70000004768,12.6099996567
"2002-08-06 22:00:00",22.5400009155,0.0,67.5,5.84999990463,7.69999980927,-3.29999995232,12.5900001526
"2002-08-06 23:00:00",22.4799995422,0.0,80.3000030518,6.96000003815,7.71000003815,-3.40000009537,12.5699996948
"2002-08-07 00:00:00",22.5900001526,0.0,80.4000015259,6.94999980927,7.44999980927,-4.0,12.5699996948
"2002-08-07 01:00:00",22.25,0.0,71.4000015259,6.21999979019,7.32999992371,-4.0,12.5399999619
"2002-08-07 02:00:00",22.0699996948,0.0,81.0,7.07000017166,7.28999996185,-3.70000004768,12.5200004578
"2002-08-07 03:00:00",21.8099994659,0.0,78.8000030518,6.92000007629,7.23999977112,-3.70000004768,12.4899997711
"2002-08-07 04:00:00",21.4400005341,0.0,82.5,7.28999996185,7.23000001907,-3.5,12.470000267
"2002-08-07 05:00:00",21.1200008392,0.0,83.9000015259,7.46000003815,7.23999977112,-3.70000004768,12.4399995804
"2002-08-07 06:00:00",20.6399993896,0.0,86.9000015259,7.80000019073,7.23000001907,-4.0,12.4200000763
"2002-08-07 07:00:00",20.4300003052,0.0,86.0,7.75,7.25,-4.0,12.3900003433
"2002-08-07 08:00:00",20.3299999237,0.0,83.0,7.5,7.23000001907,-4.0,12.3699998856
"2002-08-07 09:00:00",20.0300006866,0.0,88.0999984741,8.0,7.26000022888,-4.0,12.3699998856
"2002-08-07 10:00:00",20.1000003815,0.0,90.3000030518,8.19999980927,7.30000019073,-4.0,13.279999733
"2002-08-07 11:00:00",20.4699993134,0.0,102.099998474,9.19999980927,7.36999988556,-4.09999990463,13.1700000763
"2002-08-07 12:00:00",22.6700000763,0.0,138.800003052,11.9799995422,7.67000007629,-4.19999980927,13.1000003815
"2002-08-07 13:00:00",23.3199996948,0.0,139.300003052,11.8800001144,8.11999988556,-4.0,13.0600004196
"2002-08-07 14:00:00",22.7199993134,0.0,114.300003052,9.85999965668,8.19999980927,-3.70000004768,13.0500001907
"2002-08-07 15:00:00",23.7000007629,0.0,137.300003052,11.6199998856,8.27000045776,-4.0,13.0100002289
"2002-08-07 16:00:00",23.8299999237,0.0,205.0,17.3199996948,8.68000030518,-3.20000004768,13.0
"2002-08-07 17:00:00",22.9500007629,0.0,192.100006104,16.5,8.68999958038,-3.5,12.779999733
"2002-08-07 18:00:00",22.0300006866,0.0,150.300003052,13.1400003433,8.53999996185,-3.40000009537,12.7100000381
"2002-08-07 19:00:00",21.4500007629,0.0,119.0,10.5100002289,8.27999973297,-3.40000009537,12.6599998474
"2002-08-07 20:00:00",22.2099990845,0.0,102.199996948,8.89999961853,8.09000015259,-3.90000009537,12.6400003433
"2002-08-07 21:00:00",21.8199996948,0.0,89.1999969482,7.82999992371,7.78999996185,-3.90000009537,12.6199998856
"2002-08-07 22:00:00",21.4699993134,0.0,86.3000030518,7.61999988556,7.59999990463,-4.0,12.6000003815
"2002-08-07 23:00:00",21.1100006104,0.0,83.1999969482,7.40000009537,7.46999979019,-4.09999990463,12.5699996948
"2002-08-08 00:00:00",20.8199996948,0.0,80.5,7.19999980927,7.36000013351,-4.0,12.5600004196
"2002-08-08 01:00:00",20.3500003815,0.0,83.3000030518,7.51999998093,7.26999998093,-3.59999990463,12.5399999619
"2002-08-08 02:00:00",19.5699996948,0.0,69.5999984741,6.38999986649,7.36000013351,-3.90000009537,12.5200004578
"2002-08-08 03:00:00",18.8899993896,0.0,73.4000015259,6.82000017166,7.53000020981,-3.79999995232,12.5
"2002-08-08 04:00:00",18.5599994659,0.0,62.7999992371,5.88000011444,7.65999984741,-3.79999995232,12.4799995422
"2002-08-08 05:00:00",18.7099990845,0.0,66.0999984741,6.17000007629,7.57999992371,-3.59999990463,12.470000267
"2002-08-08 06:00:00",18.3600006104,0.0,71.1999969482,6.69999980927,7.57999992371,-3.59999990463,12.4399995804
"2002-08-08 07:00:00",17.8299999237,0.0,66.3000030518,6.30000019073,7.59000015259,-3.29999995232,12.4200000763
"2002-08-08 08:00:00",17.9300003052,0.0,65.3000030518,6.19000005722,7.59000015259,-3.70000004768,12.3999996185
"2002-08-08 09:00:00",18.1800003052,0.0,66.0,6.23000001907,7.61000013351,-3.79999995232,12.3999996185
"2002-08-08 10:00:00",18.8600006104,0.0,83.4000015259,7.76000022888,7.63000011444,-4.09999990463,13.2899999619
"2002-08-08 11:00:00",19.1800003052,0.0,98.3000030518,9.09000015259,7.67000007629,-4.09999990463,13.1899995804
"2002-08-08 12:00:00",22.0100002289,0.0,132.600006104,11.6000003815,7.78000020981,-4.09999990463,13.1000003815
"2002-08-08 13:00:00",21.7700004578,0.0,136.399993896,11.9799995422,7.80000019073,-4.09999990463,13.0500001907
"2002-08-08 14:00:00",22.7299995422,0.0,146.899993896,12.6700000763,7.88000011444,-3.79999995232,13.029999733
"2002-08-08 15:00:00",23.5200004578,0.0,176.300003052,14.970000267,8.64999961853,-3.70000004768,13.0
"2002-08-08 16:00:00",23.7099990845,0.0,211.600006104,17.9099998474,8.89000034332,-3.59999990463,12.9899997711
"2002-08-08 17:00:00",22.4799995422,0.0,121.099998474,10.5,8.35000038147,-3.29999995232,12.7899999619
"2002-08-08 18:00:00",22.2299995422,0.0,105.199996948,9.15999984741,8.10000038147,-3.29999995232,12.7100000381
"2002-08-08 19:00:00",21.8500003815,0.0,95.0,8.32999992371,7.94000005722,-3.40000009537,12.6700000763
"2002-08-08 20:00:00",21.7099990845,0.0,85.4000015259,7.51000022888,7.80000019073,-3.70000004768,12.6499996185
"2002-08-08 21:00:00",21.1900005341,0.0,79.0999984741,7.03000020981,7.63000011444,-3.59999990463,12.6300001144
"2002-08-08 22:00:00",19.7900009155,0.0,64.4000015259,5.88000011444,7.76000022888,-3.59999990463,12.6000003815
"2002-08-08 23:00:00",18.4300003052,0.0,57.2000007629,5.36999988556,7.80999994278,-3.5,12.5799999237
"2002-08-09 00:00:00",19.2900009155,0.0,50.7999992371,4.69000005722,7.82000017166,-3.59999990463,12.5600004196
"2002-08-09 01:00:00",19.3199996948,0.0,51.0,4.69999980927,7.82999992371,-3.29999995232,12.5399999619
"2002-08-09 02:00:00",18.7199993134,0.0,45.5,4.25,7.78000020981,-3.59999990463,12.5200004578
"2002-08-09 03:00:00",19.1499996185,0.0,40.4000015259,3.74000000954,7.63000011444,-3.5,12.5
"2002-08-09 04:00:00",19.2800006866,0.0,44.0,4.05000019073,7.30000019073,-3.79999995232,12.4899997711
"2002-08-09 05:00:00",19.1299991608,0.0,77.8000030518,7.19999980927,7.21000003815,-3.5,12.470000267
"2002-08-09 06:00:00",19.1100006104,0.0,81.6999969482,7.55999994278,7.19999980927,-3.79999995232,12.4399995804
"2002-08-09 07:00:00",18.6800003052,0.0,82.5999984741,7.71000003815,7.21000003815,-3.79999995232,12.4200000763
"2002-08-09 08:00:00",18.7800006866,0.0,73.4000015259,6.84000015259,7.17999982834,-3.59999990463,12.3999996185
"2002-08-09 09:00:00",18.7700004578,0.0,86.3000030518,8.05000019073,7.21000003815,-3.59999990463,12.3999996185
"2002-08-09 10:00:00",19.4599990845,0.0,85.0999984741,7.82000017166,7.28000020981,-3.5,13.1400003433
"2002-08-09 11:00:00",19.5699996948,0.0,85.5999984741,7.86000013351,7.36999988556,-3.79999995232,13.1800003052
"2002-08-09 12:00:00",22.3400001526,0.0,185.800003052,16.1399993896,7.92999982834,-3.90000009537,13.1000003815
"2002-08-09 13:00:00",23.5200004578,0.0,200.5,17.0300006866,8.60000038147,-3.79999995232,13.0500001907
"2002-08-09 14:00:00",23.7099990845,0.0,227.199996948,19.2299995422,9.03999996185,-3.70000004768,12.8400001526
"2002-08-09 15:00:00",24.9899997711,0.0,330.600006104,27.3299999237,8.75,-3.90000009537,12.779999733